FW7820 Weather Reports


Display with metric or nautical units.
time (UTC)temp
F
wind
direction
speed
MPH
gust
MPH
rain 1hr
in
rain 24hr
in
rain mn
in
humidity
%
barometer
mb
20260505055631 58 53 0.0 0.0 0.00 0.00 0.00 92 1013.5
20260505055128 58 53 0.0 0.0 0.00 0.00 0.00 91 1013.6
20260505054626 58 53 0.0 0.0 0.00 0.00 0.00 91 1013.8
20260505054124 59 52 0.0 0.0 0.00 0.00 0.00 91 1013.7
20260505053621 59 52 0.0 0.0 0.00 0.00 0.00 91 1013.9
20260505053117 59 58 0.0 0.0 0.00 0.00 0.00 91 1013.8
20260505052614 59 57 0.0 0.0 0.00 0.00 0.00 90 1013.6
20260505052112 59 53 0.0 0.0 0.00 0.00 0.00 90 1013.8
20260505051608 59 52 0.0 0.0 0.00 0.00 0.00 90 1013.8
20260505051107 59 53 0.0 0.0 0.00 0.00 0.00 90 1013.6
20260505050604 59 54 0.0 0.0 0.00 0.00 0.00 89 1014.0
20260505041532 60 61 0.0 0.0 0.00 0.00 0.00 87 1013.9
20260505041029 60 69 0.0 0.0 0.00 0.00 0.00 86 1013.9
20260505040526 61 77 0.0 0.0 0.00 0.00 0.00 87 1013.8
20260505040024 61 66 0.0 0.0 0.00 0.00 0.00 86 1013.7
20260505035519 61 51 0.0 0.0 0.00 0.00 0.00 86 1013.9
20260505035016 61 11 0.0 0.0 0.00 0.00 0.00 85 1013.9
20260505034513 61 257 0.0 0.0 0.00 0.00 0.00 85 1013.9
20260505034010 61 65 0.0 0.0 0.00 0.00 0.00 86 1013.8
20260505033507 62 65 0.0 0.0 0.00 0.00 0.00 86 1013.9
20260505033005 61 61 0.0 0.0 0.00 0.00 0.00 85 1013.9
20260505032502 61 21 0.0 1.0 0.00 0.00 0.00 85 1013.6
20260505031958 61 75 0.0 0.0 0.00 0.00 0.00 85 1013.6
20260505031455 61 67 0.0 0.0 0.00 0.00 0.00 85 1013.5
20260505030952 62 70 0.0 0.0 0.00 0.00 0.00 85 1013.4
20260505030448 61 351 0.0 0.0 0.00 0.00 0.00 84 1013.6
20260505025943 61 46 0.0 0.0 0.00 0.00 0.00 85 1013.6
20260505025441 61 67 0.0 0.0 0.00 0.00 0.00 86 1013.4
20260505024940 62 61 0.0 0.0 0.00 0.00 0.00 85 1013.3
20260505024437 62 72 0.0 0.0 0.00 0.00 0.00 83 1013.6
20260505023934 62 82 0.0 0.0 0.00 0.00 0.00 83 1013.4
20260505023431 61 78 0.0 0.0 0.00 0.00 0.00 84 1013.5
20260505022928 61 75 0.0 0.0 0.00 0.00 0.00 85 1013.6
20260505022426 61 76 0.0 0.0 0.00 0.00 0.00 85 1013.6
20260505021922 61 79 0.0 0.0 0.00 0.00 0.00 85 1013.7
20260505021419 61 73 0.0 0.0 0.00 0.00 0.00 85 1013.8
20260505020915 61 74 0.0 0.0 0.00 0.00 0.00 84 1013.5
20260505020410 61 82 0.0 0.0 0.00 0.00 0.00 83 1013.6
20260505015908 61 92 0.0 0.0 0.00 0.00 0.00 82 1013.2
20260505015405 61 92 0.0 0.0 0.00 0.00 0.00 81 1013.5
20260505014902 61 92 0.0 0.0 0.00 0.00 0.00 80 1013.6
20260505014359 62 92 0.0 0.0 0.00 0.00 0.00 81 1013.3
20260505013855 62 92 0.0 0.0 0.00 0.00 0.00 80 1013.2
20260505013352 62 92 0.0 0.0 0.00 0.00 0.00 80 1013.2
20260505012851 62 92 0.0 0.0 0.00 0.00 0.00 79 1013.3
20260505012349 63 92 0.0 0.0 0.00 0.00 0.00 79 1012.9
20260505011844 63 92 0.0 0.0 0.00 0.00 0.00 78 1013.2
20260505011341 63 92 0.0 0.0 0.00 0.00 0.00 77 1012.9
20260505010837 64 92 0.0 0.0 0.00 0.00 0.00 76 1013.1
20260505010333 64 92 0.0 0.0 0.00 0.00 0.00 74 1013.1
20260505005829 65 92 0.0 0.0 0.00 0.00 0.00 76 1013.1
20260505005326 66 93 0.0 0.0 0.00 0.00 0.00 74 1013.3
20260505004824 66 93 0.0 0.0 0.00 0.00 0.00 72 1013.2
20260505004320 67 93 0.0 0.0 0.00 0.00 0.00 69 1013.3
20260505003818 67 93 0.0 0.0 0.00 0.00 0.00 70 1013.1
20260505003315 68 93 0.0 0.0 0.00 0.00 0.00 71 1013.1
20260505002811 68 76 0.0 0.0 0.00 0.00 0.00 69 1013.0
20260505002308 68 76 0.0 0.0 0.00 0.00 0.00 68 1013.0
20260505001806 69 83 0.0 0.0 0.00 0.00 0.00 68 1012.9
20260505001303 69 83 0.0 0.0 0.00 0.00 0.00 65 1012.6
20260505000800 69 79 0.0 0.0 0.00 0.00 0.00 66 1012.9
20260505000258 70 87 0.0 0.0 0.00 0.00 0.00 64 1012.9
20260504235754 70 100 0.0 0.0 0.00 0.00 0.00 61 1013.0
20260504235250 71 95 0.0 0.0 0.00 0.00 0.00 64 1012.8
20260504234748 71 87 0.0 0.0 0.00 0.00 0.00 65 1012.9
20260504234245 71 87 0.0 0.0 0.00 0.00 0.00 62 1013.0
20260504233742 72 132 1.0 1.0 0.00 0.00 0.00 60 1013.0
20260504233237 72 107 0.0 1.0 0.00 0.00 0.00 61 1013.2
20260504232734 72 110 0.0 1.0 0.00 0.00 0.00 61 1013.0
20260504232231 72 91 0.0 0.0 0.00 0.00 0.00 62 1013.1
20260504231728 72 90 0.0 0.0 0.00 0.00 0.00 64 1013.0
20260504231224 73 102 0.0 0.0 0.00 0.00 0.00 60 1013.1
20260504230720 73 101 0.0 0.0 0.00 0.00 0.00 63 1013.1
20260504230220 74 48 0.0 0.0 0.00 0.00 0.00 60 1013.2
20260504225718 74 98 1.0 1.0 0.00 0.00 0.00 59 1013.0
20260504225214 74 87 0.0 0.0 0.00 0.00 0.00 60 1013.4
20260504224711 74 97 0.0 0.0 0.00 0.00 0.00 57 1013.3
20260504224209 75 66 0.0 0.0 0.00 0.00 0.00 56 1013.2
20260504223704 75 85 0.0 0.0 0.00 0.00 0.00 56 1013.3
20260504223200 76 100 2.0 2.0 0.00 0.00 0.00 54 1013.6
20260504222657 76 114 0.0 0.0 0.00 0.00 0.00 56 1013.6
20260504222154 75 109 0.0 0.0 0.00 0.00 0.00 54 1013.4
20260504221651 75 93 0.0 0.0 0.00 0.00 0.00 55 1013.5
20260504221148 75 109 0.0 0.0 0.00 0.00 0.00 55 1013.6
20260504220644 76 104 0.0 0.0 0.00 0.00 0.00 54 1013.6
20260504220142 76 98 0.0 0.0 0.00 0.00 0.00 56 1013.8
20260504215638 76 103 0.0 1.0 0.00 0.00 0.00 55 1013.8
20260504215136 76 99 0.0 1.0 0.00 0.00 0.00 55 1013.5
20260504214632 75 108 0.0 0.0 0.00 0.00 0.00 53 1013.6
20260504214128 75 106 1.0 1.0 0.00 0.00 0.00 57 1013.8
20260504213625 76 120 0.0 0.0 0.00 0.00 0.00 52 1013.5
20260504213122 76 150 1.0 1.0 0.00 0.00 0.00 51 1013.7
20260504212618 76 68 0.0 0.0 0.00 0.00 0.00 54 1013.8
20260504212115 76 85 0.0 0.0 0.00 0.00 0.00 52 1013.9
20260504211612 76 74 0.0 0.0 0.00 0.00 0.00 53 1013.7
20260504211109 76 100 1.0 1.0 0.00 0.00 0.00 51 1013.9
20260504210607 76 209 0.0 0.0 0.00 0.00 0.00 52 1013.8
20260504205601 77 94 0.0 0.0 0.00 0.00 0.00 51 1013.9
20260504205058 77 87 0.0 0.0 0.00 0.00 0.00 50 1014.0
20260504204556 78 117 0.0 0.0 0.00 0.00 0.00 47 1014.2
20260504204055 78 84 0.0 1.0 0.00 0.00 0.00 46 1014.0
20260504203553 79 137 1.0 1.0 0.00 0.00 0.00 45 1014.2
20260504203050 80 1 0.0 0.0 0.00 0.00 0.00 49 1014.1
20260504202545 79 233 0.0 1.0 0.00 0.00 0.00 48 1014.4
20260504202042 79 188 1.0 2.0 0.00 0.00 0.00 50 1014.5
20260504201539 79 168 0.0 0.0 0.00 0.00 0.00 46 1014.4
20260504201037 79 228 1.0 1.0 0.00 0.00 0.00 51 1014.7
20260504200533 79 87 0.0 0.0 0.00 0.00 0.00 48 1014.9
20260504200030 79 137 0.0 0.0 0.00 0.00 0.00 50 1014.9
20260504195526 79 156 1.0 1.0 0.00 0.00 0.00 49 1014.9
20260504195023 79 77 0.0 0.0 0.00 0.00 0.00 49 1015.0
20260504194519 78 98 1.0 1.0 0.00 0.00 0.00 49 1015.1
20260504194015 79 107 1.0 1.0 0.00 0.00 0.00 49 1015.2
20260504193512 79 72 0.0 0.0 0.00 0.00 0.00 49 1015.3
20260504193011 80 74 0.0 0.0 0.00 0.00 0.00 49 1015.5
20260504192508 80 107 1.0 1.0 0.00 0.00 0.00 47 1015.4
20260504192007 80 284 1.0 1.0 0.00 0.00 0.00 50 1015.5
20260504191504 80 97 1.0 1.0 0.00 0.00 0.00 45 1015.2
20260504190959 80 10 1.0 1.0 0.00 0.00 0.00 47 1015.3
20260504190455 79 170 1.0 1.0 0.00 0.00 0.00 48 1015.5
20260504185952 79 294 0.0 1.0 0.00 0.00 0.00 49 1015.5
20260504185449 78 93 0.0 0.0 0.00 0.00 0.00 50 1015.4
20260504184945 79 277 3.0 3.0 0.00 0.00 0.00 47 1015.5
20260504184441 79 330 1.0 2.0 0.00 0.00 0.00 49 1015.5
20260504183937 79 131 0.0 0.0 0.00 0.00 0.00 50 1015.7
20260504183434 80 356 3.0 3.0 0.00 0.00 0.00 46 1015.6
20260504182932 79 355 0.0 1.0 0.00 0.00 0.00 49 1015.6
20260504182429 79 201 1.0 1.0 0.00 0.00 0.00 48 1015.7
20260504181926 80 66 0.0 1.0 0.00 0.00 0.00 46 1016.0
20260504181423 80 105 0.0 0.0 0.00 0.00 0.00 46 1015.9
20260504180922 79 79 0.0 1.0 0.00 0.00 0.00 49 1016.0
20260504180420 79 94 0.0 0.0 0.00 0.00 0.00 48 1016.0
20260504175918 78 0 0.0 0.0 0.00 0.00 0.00 50 1016.3
20260504175415 79 313 2.0 2.0 0.00 0.00 0.00 45 1016.1
20260504174913 79 137 1.0 1.0 0.00 0.00 0.00 52 1016.2
20260504174410 78 82 0.0 0.0 0.00 0.00 0.00 49 1016.2
20260504173907 78 297 0.0 0.0 0.00 0.00 0.00 51 1016.3
20260504173403 78 65 0.0 0.0 0.00 0.00 0.00 53 1016.5
20260504172901 79 78 1.0 1.0 0.00 0.00 0.00 45 1016.4
20260504172357 78 66 0.0 0.0 0.00 0.00 0.00 50 1016.6
20260504171853 78 270 1.0 1.0 0.00 0.00 0.00 49 1016.6
20260504171350 77 153 0.0 0.0 0.00 0.00 0.00 50 1016.8
20260504170848 77 15 1.0 2.0 0.00 0.00 0.00 49 1016.9
20260504170344 76 98 1.0 1.0 0.00 0.00 0.00 50 1016.9
20260504160303 76 55 0.0 0.0 0.00 0.00 0.00 58 1017.3
20260504150728 74 72 0.0 0.0 0.00 0.00 0.00 61 1017.5
20260504150225 73 36 1.0 2.0 0.00 0.00 0.00 61 1017.6
20260504141154 69 88 0.0 0.0 0.00 0.00 0.00 73 1017.7
20260504140651 69 82 0.0 0.0 0.00 0.00 0.00 77 1017.6
20260504140146 68 75 0.0 0.0 0.00 0.00 0.00 79 1017.3
20260504130614 61 79 0.0 1.0 0.00 0.00 0.00 88 1017.5
20260504130112 61 78 0.0 0.0 0.00 0.00 0.00 89 1017.3
20260504110503 50 62 0.0 0.0 0.00 0.00 0.00 99 1017.0
20260504100419 50 62 0.0 0.0 0.00 0.00 0.00 99 1016.6
20260504081812 50 62 0.0 0.0 0.00 0.00 0.00 99 1017.2
20260504081309 50 61 0.0 0.0 0.00 0.00 0.00 99 1017.4
20260504080804 50 61 0.0 0.0 0.00 0.00 0.00 99 1017.2
20260504080301 50 61 0.0 0.0 0.00 0.00 0.00 99 1017.3
20260504070229 51 61 0.0 0.0 0.00 0.00 0.00 99 1017.6
20260504060149 52 61 0.0 0.0 0.00 0.00 0.00 99 1018.5